GFSNIL_prec_precacc24_114.txt.gz
Total_Precipitation_Accumulation
0.00 0.01 0.01 0.01 0.02 0.07 0.38 0.50 0.71 0.71 0.57 0.53 0.44 0.45 0.51 0.39 0.29 0.11 0.08 0.06 0.05 0.07
0.00 0.00 0.01 0.01 0.01 0.03 0.16 0.54 0.65 0.88 0.73 0.50 0.53 0.47 0.50 0.48 0.48 0.28 0.17 0.09 0.09 0.09
0.00 0.00 0.01 0.01 0.01 0.02 0.10 0.35 0.44 0.57 0.75 0.59 0.51 0.45 0.43 0.38 0.31 0.29 0.16 0.10 0.07 0.03
0.00 0.00 0.00 0.01 0.01 0.01 0.05 0.20 0.42 0.28 0.45 0.56 0.44 0.37 0.30 0.26 0.23 0.20 0.18 0.13 0.08 0.04
0.00 0.00 0.00 0.00 0.01 0.01 0.03 0.09 0.26 0.44 0.37 0.42 0.43 0.35 0.26 0.19 0.17 0.15 0.16 0.13 0.13 0.07
0.00 0.00 0.00 0.00 0.00 0.01 0.01 0.04 0.08 0.24 0.35 0.37 0.32 0.29 0.17 0.19 0.16 0.13 0.12 0.12 0.16 0.10
0.00 0.00 0.00 0.00 0.00 0.00 0.01 0.01 0.04 0.07 0.11 0.20 0.24 0.24 0.22 0.14 0.11 0.10 0.14 0.16 0.17 0.14
0.00 0.00 0.00 0.00 0.00 0.00 0.00 0.00 0.01 0.01 0.04 0.05 0.13 0.17 0.21 0.23 0.15 0.13 0.18 0.17 0.18 0.23
0.00 0.00 0.00 0.00 0.00 0.00 0.00 0.01 0.01 0.01 0.01 0.01 0.02 0.17 0.17 0.20 0.22 0.20 0.20 0.23 0.22 0.23
0.01 0.00 0.00 0.00 0.00 0.00 0.00 0.00 0.01 0.01 0.01 0.01 0.02 0.10 0.10 0.18 0.15 0.27 0.32 0.25 0.18 0.16
0.10 0.05 0.00 0.00 0.00 0.00 0.00 0.01 0.01 0.01 0.02 0.04 0.08 0.12 0.07 0.12 0.06 0.17 0.23 0.25 0.27 0.26
0.16 0.15 0.09 0.02 0.00 0.00 0.00 0.01 0.03 0.04 0.06 0.07 0.08 0.15 0.10 0.08 0.05 0.16 0.20 0.21 0.27 0.31
0.20 0.16 0.12 0.09 0.05 0.01 0.01 0.03 0.04 0.07 0.11 0.19 0.12 0.25 0.18 0.15 0.06 0.16 0.24 0.28 0.43 0.59
0.20 0.16 0.16 0.12 0.10 0.04 0.04 0.07 0.11 0.13 0.15 0.18 0.21 0.28 0.30 0.23 0.08 0.12 0.21 0.25 0.28 0.45

GFSNIL_prec_precacc24_117.txt.gz
Total_Precipitation_Accumulation
0.00 0.01 0.01 0.01 0.02 0.08 0.39 0.50 0.71 0.72 0.65 0.72 0.57 0.58 0.67 0.59 0.39 0.18 0.11 0.07 0.06 0.05
0.00 0.00 0.01 0.01 0.02 0.03 0.16 0.54 0.65 0.90 0.78 0.63 0.72 0.64 0.70 0.72 0.67 0.45 0.24 0.12 0.10 0.09
0.00 0.00 0.01 0.02 0.02 0.02 0.10 0.35 0.44 0.58 0.79 0.68 0.62 0.67 0.66 0.67 0.60 0.56 0.34 0.14 0.09 0.05
0.00 0.00 0.00 0.02 0.02 0.02 0.05 0.20 0.42 0.29 0.46 0.62 0.52 0.53 0.48 0.46 0.50 0.48 0.44 0.23 0.09 0.04
0.00 0.00 0.01 0.01 0.01 0.01 0.03 0.09 0.26 0.45 0.38 0.48 0.49 0.48 0.42 0.36 0.31 0.32 0.34 0.22 0.16 0.07
0.00 0.00 0.01 0.01 0.01 0.01 0.01 0.04 0.08 0.25 0.36 0.40 0.35 0.34 0.29 0.35 0.27 0.20 0.17 0.16 0.16 0.10
0.01 0.00 0.00 0.01 0.01 0.01 0.01 0.01 0.04 0.08 0.13 0.24 0.33 0.29 0.28 0.20 0.16 0.12 0.13 0.15 0.15 0.12
0.01 0.01 0.00 0.01 0.01 0.01 0.01 0.01 0.01 0.02 0.05 0.08 0.19 0.23 0.23 0.21 0.13 0.11 0.15 0.13 0.13 0.16
0.01 0.01 0.01 0.01 0.01 0.01 0.01 0.02 0.02 0.02 0.01 0.01 0.03 0.23 0.20 0.20 0.21 0.17 0.16 0.19 0.18 0.17
0.02 0.00 0.00 0.01 0.01 0.01 0.01 0.01 0.02 0.01 0.00 0.00 0.00 0.06 0.09 0.18 0.16 0.29 0.32 0.24 0.17 0.15
0.12 0.05 0.01 0.00 0.01 0.01 0.01 0.01 0.01 0.01 0.02 0.02 0.04 0.07 0.06 0.12 0.06 0.17 0.23 0.25 0.27 0.26
0.18 0.17 0.12 0.04 0.00 0.00 0.00 0.01 0.03 0.04 0.05 0.06 0.06 0.13 0.09 0.10 0.05 0.15 0.20 0.20 0.27 0.31
0.27 0.18 0.13 0.11 0.06 0.02 0.01 0.03 0.04 0.07 0.10 0.17 0.11 0.23 0.18 0.15 0.05 0.15 0.23 0.27 0.43 0.61
0.28 0.19 0.18 0.14 0.12 0.08 0.07 0.07 0.10 0.13 0.15 0.17 0.20 0.28 0.32 0.27 0.08 0.11 0.21 0.25 0.28 0.46

GFSNIL_prec_precacc24_120.txt.gz
Total_Precipitation_Accumulation
0.00 0.01 0.01 0.01 0.02 0.08 0.39 0.51 0.71 0.73 0.65 0.70 0.53 0.55 0.71 0.67 0.51 0.32 0.21 0.10 0.09 0.07
0.01 0.01 0.01 0.01 0.02 0.03 0.17 0.55 0.66 0.90 0.78 0.63 0.71 0.65 0.74 0.82 0.78 0.63 0.41 0.23 0.17 0.12
0.01 0.01 0.01 0.02 0.02 0.02 0.10 0.35 0.44 0.58 0.79 0.68 0.62 0.67 0.75 0.82 0.78 0.80 0.55 0.30 0.26 0.17
0.00 0.00 0.00 0.02 0.03 0.02 0.05 0.20 0.42 0.28 0.46 0.62 0.52 0.54 0.57 0.64 0.73 0.75 0.70 0.46 0.30 0.20
0.01 0.01 0.01 0.01 0.02 0.02 0.03 0.09 0.26 0.45 0.38 0.48 0.49 0.52 0.52 0.54 0.53 0.60 0.63 0.50 0.34 0.21
0.01 0.00 0.01 0.01 0.02 0.01 0.02 0.04 0.08 0.25 0.36 0.40 0.36 0.39 0.36 0.51 0.47 0.47 0.47 0.41 0.37 0.22
0.02 0.01 0.01 0.02 0.01 0.01 0.01 0.01 0.04 0.08 0.13 0.24 0.34 0.32 0.33 0.27 0.34 0.36 0.38 0.42 0.37 0.26
0.04 0.03 0.01 0.02 0.02 0.01 0.01 0.01 0.01 0.02 0.05 0.08 0.19 0.23 0.26 0.24 0.20 0.25 0.29 0.26 0.27 0.27
0.02 0.02 0.02 0.02 0.02 0.02 0.01 0.01 0.01 0.01 0.01 0.01 0.03 0.24 0.21 0.22 0.23 0.16 0.14 0.13 0.12 0.14
0.03 0.01 0.01 0.03 0.03 0.02 0.02 0.02 0.02 0.01 0.00 0.00 0.01 0.06 0.10 0.20 0.15 0.21 0.24 0.18 0.14 0.12
0.15 0.06 0.01 0.01 0.02 0.02 0.02 0.03 0.02 0.02 0.02 0.02 0.03 0.06 0.05 0.13 0.06 0.15 0.19 0.22 0.25 0.26
0.24 0.21 0.14 0.05 0.01 0.02 0.02 0.03 0.04 0.05 0.05 0.04 0.04 0.09 0.09 0.12 0.05 0.16 0.23 0.24 0.29 0.33
0.50 0.31 0.20 0.14 0.09 0.03 0.02 0.04 0.04 0.05 0.08 0.15 0.10 0.20 0.18 0.16 0.06 0.16 0.26 0.30 0.45 0.67
0.61 0.48 0.33 0.22 0.15 0.11 0.09 0.07 0.09 0.10 0.13 0.16 0.20 0.26 0.32 0.28 0.09 0.12 0.23 0.28 0.31 0.50

GFSNIL_prec_precacc24_123.txt.gz
Total_Precipitation_Accumulation
0.01 0.02 0.02 0.01 0.02 0.07 0.38 0.50 0.72 0.73 0.65 0.70 0.53 0.55 0.70 0.67 0.51 0.33 0.24 0.16 0.13 0.09
0.01 0.01 0.02 0.01 0.02 0.03 0.17 0.55 0.66 0.91 0.78 0.63 0.71 0.65 0.73 0.82 0.80 0.67 0.50 0.31 0.24 0.16
0.01 0.01 0.01 0.02 0.02 0.03 0.10 0.35 0.45 0.58 0.80 0.70 0.63 0.68 0.74 0.82 0.82 0.92 0.74 0.54 0.47 0.32
0.01 0.01 0.01 0.02 0.03 0.02 0.05 0.20 0.42 0.28 0.46 0.62 0.52 0.55 0.57 0.65 0.75 0.84 0.93 0.75 0.63 0.46
0.03 0.02 0.01 0.02 0.03 0.02 0.03 0.09 0.26 0.45 0.38 0.48 0.49 0.52 0.52 0.56 0.60 0.72 0.83 0.77 0.60 0.54
0.03 0.02 0.02 0.02 0.02 0.02 0.02 0.04 0.08 0.25 0.36 0.40 0.36 0.39 0.36 0.52 0.56 0.65 0.75 0.71 0.61 0.50
0.05 0.03 0.02 0.04 0.02 0.02 0.01 0.01 0.04 0.08 0.13 0.24 0.34 0.32 0.33 0.28 0.38 0.46 0.55 0.58 0.58 0.54
0.07 0.07 0.04 0.04 0.04 0.02 0.01 0.01 0.01 0.02 0.05 0.08 0.18 0.23 0.26 0.25 0.22 0.33 0.44 0.50 0.55 0.51
0.03 0.04 0.06 0.05 0.05 0.03 0.01 0.01 0.01 0.01 0.01 0.01 0.03 0.24 0.21 0.22 0.23 0.19 0.26 0.41 0.38 0.33
0.04 0.04 0.02 0.03 0.06 0.05 0.02 0.02 0.02 0.01 0.00 0.00 0.00 0.06 0.10 0.20 0.15 0.20 0.23 0.24 0.24 0.23
0.17 0.09 0.03 0.01 0.04 0.08 0.05 0.04 0.02 0.02 0.01 0.01 0.01 0.05 0.05 0.13 0.05 0.11 0.15 0.17 0.21 0.23
0.26 0.23 0.16 0.06 0.02 0.06 0.07 0.06 0.04 0.03 0.02 0.02 0.02 0.07 0.10 0.13 0.04 0.12 0.18 0.19 0.24 0.31
0.54 0.37 0.24 0.16 0.10 0.04 0.05 0.06 0.04 0.03 0.05 0.10 0.06 0.14 0.16 0.18 0.08 0.18 0.25 0.30 0.45 0.72
0.58 0.53 0.47 0.33 0.21 0.12 0.09 0.07 0.07 0.07 0.09 0.14 0.18 0.21 0.28 0.26 0.09 0.12 0.24 0.32 0.37 0.55

GFSNIL_prec_precacc24_129.txt.gz
Total_Precipitation_Accumulation
0.08 0.10 0.05 0.02 0.01 0.05 0.30 0.35 0.52 0.56 0.51 0.54 0.38 0.36 0.51 0.50 0.41 0.34 0.26 0.19 0.17 0.13
0.13 0.07 0.03 0.03 0.03 0.03 0.11 0.40 0.43 0.68 0.63 0.48 0.53 0.47 0.54 0.65 0.63 0.60 0.50 0.32 0.29 0.21
0.10 0.10 0.07 0.05 0.03 0.03 0.08 0.23 0.32 0.47 0.66 0.56 0.44 0.53 0.60 0.70 0.72 0.86 0.75 0.58 0.54 0.47
0.06 0.12 0.08 0.06 0.06 0.04 0.05 0.16 0.34 0.21 0.39 0.57 0.49 0.52 0.56 0.63 0.74 0.82 0.96 0.83 0.74 0.61
0.05 0.05 0.11 0.11 0.08 0.03 0.05 0.10 0.24 0.39 0.32 0.47 0.50 0.53 0.54 0.60 0.63 0.75 0.86 0.83 0.77 0.71
0.05 0.07 0.10 0.09 0.13 0.08 0.05 0.07 0.09 0.24 0.35 0.40 0.37 0.39 0.37 0.54 0.59 0.68 0.81 0.88 0.90 0.88
0.07 0.08 0.14 0.12 0.07 0.09 0.07 0.04 0.06 0.09 0.13 0.24 0.34 0.32 0.33 0.29 0.39 0.48 0.60 0.72 0.86 0.93
0.12 0.12 0.09 0.18 0.18 0.09 0.05 0.04 0.03 0.02 0.05 0.08 0.18 0.23 0.26 0.25 0.23 0.34 0.47 0.57 0.66 0.71
0.05 0.12 0.17 0.15 0.20 0.22 0.15 0.04 0.02 0.01 0.01 0.01 0.03 0.26 0.22 0.22 0.24 0.20 0.28 0.48 0.51 0.56
0.04 0.06 0.06 0.13 0.19 0.16 0.08 0.04 0.02 0.01 0.00 0.00 0.00 0.06 0.10 0.20 0.15 0.20 0.23 0.33 0.41 0.40
0.10 0.06 0.04 0.03 0.08 0.19 0.23 0.13 0.04 0.02 0.01 0.01 0.01 0.03 0.05 0.12 0.04 0.09 0.11 0.18 0.31 0.39
0.14 0.11 0.12 0.07 0.05 0.09 0.14 0.17 0.10 0.04 0.02 0.01 0.01 0.04 0.08 0.12 0.03 0.08 0.12 0.14 0.16 0.21
0.40 0.25 0.16 0.12 0.11 0.08 0.10 0.13 0.15 0.15 0.11 0.08 0.04 0.10 0.13 0.18 0.07 0.16 0.19 0.19 0.27 0.54
0.41 0.39 0.37 0.26 0.17 0.13 0.12 0.12 0.18 0.16 0.15 0.12 0.12 0.12 0.19 0.20 0.08 0.10 0.14 0.18 0.20 0.32

GFSNIL_prec_precacc24_132.txt.gz
Total_Precipitation_Accumulation
0.08 0.09 0.05 0.02 0.01 0.02 0.09 0.18 0.34 0.42 0.41 0.47 0.34 0.35 0.49 0.49 0.41 0.34 0.27 0.20 0.18 0.15
0.19 0.20 0.10 0.06 0.09 0.03 0.05 0.23 0.30 0.52 0.49 0.36 0.43 0.39 0.47 0.61 0.58 0.58 0.48 0.32 0.29 0.23
0.22 0.27 0.18 0.16 0.10 0.05 0.05 0.17 0.27 0.35 0.51 0.41 0.34 0.42 0.48 0.62 0.64 0.76 0.69 0.55 0.53 0.47
0.21 0.29 0.25 0.21 0.17 0.13 0.11 0.14 0.25 0.16 0.29 0.39 0.34 0.36 0.41 0.49 0.61 0.70 0.84 0.75 0.70 0.60
0.16 0.17 0.26 0.30 0.26 0.18 0.17 0.21 0.32 0.34 0.23 0.33 0.35 0.43 0.37 0.46 0.52 0.65 0.77 0.77 0.74 0.70
0.17 0.20 0.23 0.22 0.28 0.19 0.15 0.14 0.16 0.27 0.29 0.29 0.27 0.34 0.33 0.45 0.53 0.66 0.80 0.87 0.89 0.89
0.14 0.15 0.26 0.25 0.18 0.15 0.12 0.14 0.17 0.18 0.17 0.22 0.27 0.29 0.29 0.28 0.39 0.48 0.61 0.73 0.87 0.94
0.12 0.13 0.09 0.18 0.19 0.10 0.06 0.07 0.11 0.13 0.15 0.12 0.19 0.22 0.24 0.24 0.23 0.34 0.47 0.57 0.66 0.71
0.05 0.12 0.19 0.15 0.20 0.22 0.20 0.11 0.07 0.08 0.08 0.04 0.05 0.26 0.22 0.22 0.24 0.20 0.28 0.48 0.51 0.56
0.05 0.06 0.08 0.16 0.20 0.20 0.16 0.37 0.34 0.14 0.04 0.01 0.01 0.06 0.11 0.21 0.15 0.20 0.23 0.33 0.41 0.40
0.09 0.05 0.04 0.04 0.10 0.20 0.28 0.22 0.14 0.14 0.03 0.01 0.01 0.03 0.05 0.12 0.05 0.09 0.12 0.18 0.31 0.39
0.12 0.10 0.10 0.07 0.05 0.09 0.14 0.23 0.25 0.16 0.05 0.02 0.01 0.04 0.08 0.12 0.02 0.07 0.11 0.12 0.14 0.18
0.39 0.24 0.14 0.10 0.09 0.08 0.11 0.15 0.17 0.17 0.14 0.13 0.05 0.09 0.13 0.17 0.07 0.15 0.16 0.16 0.21 0.45
0.41 0.39 0.33 0.24 0.15 0.12 0.11 0.12 0.21 0.20 0.18 0.20 0.22 0.18 0.19 0.19 0.07 0.07 0.12 0.15 0.16 0.22

GFSNIL_prec_precacc24_135.txt.gz
Total_Precipitation_Accumulation
0.08 0.09 0.05 0.02 0.01 0.01 0.01 0.02 0.11 0.23 0.34 0.45 0.34 0.36 0.51 0.50 0.42 0.34 0.27 0.20 0.18 0.15
0.19 0.20 0.10 0.06 0.09 0.04 0.01 0.03 0.12 0.23 0.36 0.32 0.42 0.39 0.48 0.63 0.61 0.59 0.49 0.32 0.29 0.23
0.25 0.28 0.19 0.19 0.13 0.09 0.08 0.05 0.14 0.22 0.34 0.30 0.25 0.38 0.47 0.61 0.66 0.78 0.71 0.56 0.53 0.47
0.44 0.52 0.34 0.32 0.29 0.28 0.28 0.27 0.29 0.21 0.24 0.28 0.19 0.28 0.38 0.47 0.61 0.71 0.84 0.74 0.70 0.60
0.33 0.39 0.40 0.38 0.36 0.31 0.32 0.36 0.50 0.37 0.19 0.23 0.17 0.27 0.34 0.47 0.50 0.64 0.76 0.75 0.71 0.68
0.33 0.27 0.27 0.28 0.33 0.28 0.27 0.28 0.35 0.43 0.33 0.28 0.17 0.20 0.26 0.42 0.47 0.59 0.73 0.82 0.85 0.87
0.41 0.36 0.39 0.36 0.31 0.30 0.27 0.31 0.34 0.35 0.35 0.35 0.28 0.19 0.17 0.19 0.33 0.41 0.54 0.67 0.80 0.88
0.23 0.24 0.21 0.30 0.30 0.29 0.27 0.22 0.24 0.28 0.33 0.28 0.25 0.18 0.15 0.15 0.17 0.27 0.36 0.50 0.62 0.66
0.06 0.14 0.21 0.18 0.24 0.26 0.26 0.19 0.19 0.21 0.16 0.20 0.16 0.29 0.19 0.15 0.15 0.13 0.24 0.44 0.51 0.56
0.06 0.07 0.09 0.18 0.20 0.22 0.21 0.41 0.39 0.22 0.14 0.12 0.09 0.19 0.26 0.27 0.11 0.13 0.18 0.32 0.41 0.40
0.10 0.06 0.05 0.06 0.14 0.22 0.32 0.24 0.19 0.22 0.15 0.07 0.08 0.11 0.06 0.12 0.04 0.09 0.11 0.18 0.31 0.38
0.11 0.10 0.10 0.07 0.06 0.11 0.17 0.26 0.27 0.22 0.10 0.04 0.02 0.05 0.09 0.13 0.02 0.06 0.10 0.11 0.13 0.16
0.36 0.22 0.13 0.10 0.09 0.08 0.11 0.15 0.16 0.19 0.24 0.21 0.08 0.10 0.11 0.15 0.05 0.11 0.12 0.13 0.15 0.36
0.41 0.38 0.32 0.23 0.15 0.11 0.11 0.12 0.20 0.19 0.20 0.26 0.27 0.23 0.25 0.22 0.07 0.05 0.10 0.14 0.15 0.18

GFSNIL_prec_precacc24_141.txt.gz
Total_Precipitation_Accumulation
0.07 0.10 0.09 0.12 0.08 0.04 0.07 0.06 0.02 0.03 0.03 0.03 0.06 0.08 0.12 0.17 0.19 0.23 0.21 0.18 0.16 0.15
0.19 0.20 0.12 0.12 0.18 0.10 0.07 0.07 0.03 0.05 0.05 0.04 0.05 0.07 0.15 0.23 0.27 0.34 0.41 0.30 0.29 0.23
0.25 0.29 0.20 0.20 0.36 0.32 0.21 0.14 0.12 0.11 0.06 0.09 0.09 0.12 0.21 0.27 0.35 0.48 0.53 0.54 0.54 0.50
0.68 0.83 0.55 0.45 0.41 0.73 0.48 0.36 0.24 0.22 0.18 0.21 0.28 0.31 0.34 0.35 0.37 0.45 0.59 0.65 0.69 0.60
0.50 0.69 0.68 0.76 0.72 0.67 0.61 0.50 0.48 0.41 0.26 0.25 0.28 0.37 0.40 0.50 0.53 0.58 0.60 0.66 0.69 0.68
0.54 0.58 0.52 0.47 0.61 0.51 0.49 0.47 0.39 0.53 0.54 0.34 0.27 0.26 0.23 0.36 0.47 0.62 0.71 0.80 0.87 0.89
0.56 0.58 0.62 0.57 0.46 0.47 0.44 0.43 0.44 0.37 0.35 0.37 0.29 0.25 0.22 0.24 0.34 0.45 0.59 0.73 0.85 0.95
0.47 0.47 0.42 0.53 0.52 0.41 0.39 0.38 0.46 0.47 0.43 0.37 0.28 0.20 0.21 0.27 0.33 0.36 0.42 0.55 0.67 0.70
0.36 0.32 0.39 0.38 0.49 0.49 0.46 0.33 0.30 0.37 0.35 0.40 0.35 0.35 0.28 0.28 0.33 0.33 0.36 0.52 0.53 0.57
0.32 0.43 0.32 0.38 0.37 0.42 0.46 0.68 0.59 0.38 0.38 0.43 0.39 0.48 0.67 0.55 0.27 0.26 0.30 0.40 0.50 0.50
0.24 0.20 0.25 0.26 0.33 0.34 0.50 0.51 0.49 0.52 0.32 0.25 0.31 0.41 0.52 1.15 0.97 0.43 0.38 0.58 0.58 0.63
0.13 0.15 0.25 0.15 0.17 0.25 0.31 0.43 0.48 0.41 0.25 0.20 0.13 0.22 0.35 0.46 0.67 0.97 0.73 0.50 0.48 0.31
0.28 0.19 0.12 0.10 0.16 0.21 0.23 0.27 0.30 0.36 0.41 0.35 0.23 0.30 0.29 0.42 0.35 0.33 0.42 0.36 0.22 0.31
0.34 0.35 0.29 0.20 0.12 0.13 0.18 0.24 0.33 0.32 0.23 0.31 0.36 0.33 0.29 0.28 0.26 0.20 0.24 0.24 0.18 0.16

GFSNIL_prec_precacc24_147.txt.gz
Total_Precipitation_Accumulation
0.07 0.10 0.09 0.14 0.10 0.07 0.20 0.67 0.94 0.67 0.60 0.69 0.66 0.61 0.16 0.09 0.05 0.04 0.05 0.05 0.07 0.09
0.18 0.21 0.15 0.18 0.33 0.17 0.23 0.32 1.08 1.52 1.35 1.22 1.25 0.81 0.45 0.18 0.09 0.06 0.07 0.08 0.11 0.11
0.26 0.28 0.21 0.24 0.58 0.77 0.46 0.56 0.58 0.92 1.38 1.64 1.56 1.67 1.01 0.36 0.17 0.12 0.12 0.12 0.15 0.22
0.72 0.86 0.64 0.58 0.65 1.18 0.87 0.66 0.82 0.64 0.52 0.91 1.09 1.63 1.54 0.66 0.31 0.14 0.10 0.14 0.15 0.19
0.63 0.81 0.92 1.05 1.09 1.56 1.66 1.07 0.95 0.78 0.43 0.37 0.54 0.80 1.50 1.25 0.67 0.27 0.12 0.11 0.23 0.20
0.94 0.92 0.87 0.86 0.95 1.07 1.42 1.17 1.27 1.11 0.85 0.50 0.35 0.35 0.54 1.22 0.92 0.33 0.18 0.25 0.38 0.44
0.75 0.96 1.20 1.17 1.05 1.19 1.14 1.44 1.72 1.95 1.04 0.70 0.55 0.45 0.42 0.50 0.50 0.37 0.30 0.32 0.37 0.50
0.44 0.49 0.49 0.69 0.96 1.07 1.24 1.35 1.69 2.05 1.60 0.94 0.67 0.62 0.43 0.42 0.43 0.30 0.31 0.29 0.24 0.29
0.34 0.29 0.34 0.37 0.50 0.57 0.64 0.65 0.72 1.21 1.88 1.75 1.13 0.83 0.70 0.50 0.50 0.45 0.33 0.33 0.34 0.35
0.30 0.40 0.30 0.36 0.32 0.38 0.45 0.69 0.68 0.56 0.82 1.29 1.16 1.29 1.42 1.26 0.67 0.48 0.47 0.45 0.47 0.42
0.23 0.19 0.24 0.26 0.30 0.28 0.46 0.48 0.48 0.59 0.49 0.46 0.65 0.81 1.12 1.97 1.88 1.04 0.69 0.84 0.77 0.75
0.09 0.16 0.29 0.20 0.25 0.29 0.32 0.43 0.47 0.42 0.30 0.31 0.28 0.36 0.49 0.67 1.13 1.22 0.94 0.66 0.79 0.66
0.00 0.00 0.02 0.08 0.19 0.31 0.29 0.31 0.36 0.48 0.52 0.44 0.36 0.43 0.35 0.50 0.58 0.53 0.62 0.80 0.71 0.67
0.00 0.00 0.00 0.00 0.02 0.14 0.29 0.42 0.46 0.44 0.36 0.42 0.46 0.53 0.60 0.54 0.62 0.73 0.60 0.43 0.50 0.47

GFSNIL_prec_precacc24_150.txt.gz
Total_Precipitation_Accumulation
0.04 0.09 0.10 0.15 0.11 0.08 0.21 0.67 0.94 0.68 0.61 0.69 0.65 0.88 0.84 0.74 0.82 0.34 0.13 0.08 0.06 0.05
0.14 0.19 0.15 0.19 0.34 0.19 0.25 0.33 1.08 1.53 1.37 1.24 1.26 0.83 0.82 0.74 0.50 0.52 0.25 0.14 0.12 0.09
0.24 0.28 0.24 0.28 0.61 0.80 0.52 0.62 0.60 0.92 1.39 1.67 1.60 1.69 1.31 1.06 0.66 0.52 0.37 0.17 0.14 0.12
0.73 0.88 0.73 0.67 0.83 1.24 0.89 0.68 0.86 0.65 0.54 0.93 1.17 1.68 1.64 1.16 0.85 0.69 0.50 0.27 0.16 0.10
0.64 0.86 0.97 1.19 1.21 1.67 1.69 1.09 0.95 0.78 0.43 0.37 0.55 0.82 1.62 1.51 1.09 0.91 0.67 0.40 0.22 0.12
0.94 0.92 0.90 0.97 1.04 1.17 1.56 1.20 1.29 1.12 0.86 0.50 0.37 0.35 0.55 1.32 1.51 0.93 0.69 0.50 0.30 0.18
0.74 0.92 1.11 1.21 1.15 1.39 1.30 1.60 1.85 2.00 1.07 0.73 0.58 0.46 0.44 0.58 0.99 1.23 0.75 0.68 0.51 0.31
0.40 0.45 0.44 0.64 0.95 1.14 1.38 1.69 2.04 2.29 1.78 1.05 0.83 0.70 0.49 0.51 0.59 0.83 1.03 0.74 0.55 0.42
0.33 0.25 0.26 0.30 0.47 0.55 0.65 0.72 0.92 1.32 1.98 1.85 1.30 1.04 0.84 0.58 0.59 0.62 0.68 1.09 0.88 0.42
0.29 0.39 0.28 0.29 0.27 0.35 0.45 0.70 0.74 0.67 0.90 1.33 1.32 1.59 1.56 1.51 0.79 0.66 0.63 0.64 1.18 0.85
0.22 0.18 0.23 0.24 0.28 0.26 0.43 0.49 0.49 0.61 0.56 0.53 0.70 1.16 1.28 2.08 2.03 1.23 0.93 1.03 0.89 0.77
0.10 0.16 0.27 0.18 0.23 0.27 0.29 0.38 0.47 0.42 0.30 0.33 0.31 0.44 0.62 0.76 1.30 1.65 1.77 1.09 0.96 0.84
0.01 0.00 0.02 0.06 0.16 0.30 0.29 0.27 0.34 0.48 0.53 0.45 0.36 0.46 0.39 0.52 0.63 0.64 0.87 1.63 1.10 0.88
0.01 0.00 0.00 0.00 0.01 0.11 0.28 0.40 0.35 0.40 0.36 0.42 0.46 0.53 0.62 0.59 0.62 0.72 0.60 0.48 0.72 0.73

GFSNIL_prec_precacc24_153.txt.gz
Total_Precipitation_Accumulation
0.00 0.02 0.06 0.14 0.11 0.08 0.21 0.67 0.94 0.68 0.60 0.69 0.65 0.88 0.84 0.73 0.89 0.93 0.82 0.78 0.37 0.12
0.08 0.16 0.14 0.18 0.33 0.20 0.26 0.33 1.09 1.53 1.37 1.25 1.26 0.82 0.81 0.75 0.50 0.62 0.69 0.62 0.69 0.30
0.19 0.22 0.21 0.26 0.65 0.90 0.56 0.66 0.64 0.93 1.40 1.67 1.61 1.69 1.31 1.07 0.66 0.51 0.56 0.54 0.47 0.37
0.69 0.80 0.67 0.65 0.89 1.35 1.00 0.79 0.89 0.66 0.55 0.95 1.19 1.70 1.69 1.18 0.86 0.69 0.51 0.48 0.49 0.41
0.63 0.84 0.94 1.14 1.18 1.73 1.82 1.17 1.01 0.83 0.43 0.37 0.55 0.83 1.62 1.51 1.08 0.89 0.65 0.48 0.37 0.36
0.94 0.91 0.86 0.93 0.96 1.15 1.61 1.27 1.45 1.20 0.92 0.53 0.37 0.35 0.55 1.31 1.49 0.91 0.68 0.53 0.34 0.17
0.74 0.92 1.09 1.17 1.12 1.35 1.31 1.71 2.00 2.20 1.20 0.78 0.63 0.49 0.45 0.57 0.98 1.22 0.74 0.68 0.54 0.31
0.39 0.44 0.44 0.55 0.83 1.07 1.36 1.71 2.12 2.38 1.89 1.19 0.94 0.76 0.52 0.51 0.59 0.83 1.03 0.74 0.55 0.45
0.32 0.22 0.23 0.27 0.35 0.38 0.53 0.72 0.99 1.42 2.07 2.01 1.48 1.23 0.93 0.61 0.58 0.62 0.68 1.09 0.89 0.43
0.29 0.38 0.26 0.26 0.19 0.27 0.41 0.70 0.77 0.75 1.01 1.40 1.37 1.83 1.87 1.71 0.83 0.67 0.63 0.63 1.21 1.14
0.22 0.18 0.22 0.23 0.26 0.17 0.30 0.45 0.50 0.65 0.62 0.59 0.77 1.30 1.62 2.52 2.47 1.32 0.98 1.09 0.94 1.15
0.10 0.16 0.27 0.17 0.22 0.26 0.27 0.37 0.46 0.43 0.33 0.36 0.35 0.59 0.90 1.22 1.78 1.99 1.91 1.25 1.07 0.99
0.01 0.01 0.02 0.06 0.16 0.27 0.24 0.24 0.26 0.35 0.48 0.48 0.39 0.49 0.60 0.93 1.11 0.89 1.12 1.89 1.32 0.97
0.01 0.01 0.00 0.00 0.01 0.11 0.27 0.36 0.31 0.32 0.26 0.38 0.47 0.54 0.66 0.70 0.95 1.07 0.75 0.63 0.90 0.83

GFSNIL_prec_precacc24_156.txt.gz
Total_Precipitation_Accumulation
0.00 0.02 0.06 0.13 0.11 0.08 0.21 0.67 0.94 0.67 0.60 0.68 0.63 0.87 0.83 0.73 0.88 0.94 0.83 0.82 0.71 0.65
0.02 0.03 0.08 0.15 0.28 0.18 0.26 0.33 1.08 1.52 1.36 1.23 1.25 0.81 0.81 0.74 0.49 0.62 0.70 0.65 0.89 0.83
0.08 0.05 0.09 0.15 0.57 0.86 0.56 0.66 0.62 0.92 1.38 1.66 1.60 1.69 1.33 1.09 0.67 0.52 0.56 0.54 0.49 0.57
0.55 0.62 0.50 0.50 0.77 1.25 0.94 0.77 0.86 0.63 0.56 0.95 1.18 1.70 1.71 1.21 0.91 0.71 0.51 0.47 0.48 0.42
0.52 0.72 0.78 0.95 1.00 1.58 1.70 1.05 0.90 0.82 0.48 0.38 0.55 0.83 1.63 1.52 1.11 0.94 0.68 0.48 0.38 0.36
0.81 0.78 0.73 0.80 0.82 1.04 1.51 1.20 1.38 1.19 0.98 0.61 0.41 0.41 0.61 1.32 1.49 0.91 0.68 0.52 0.34 0.16
0.67 0.85 0.97 1.04 1.02 1.29 1.25 1.61 1.88 2.13 1.19 0.82 0.72 0.64 0.57 0.61 0.97 1.22 0.74 0.67 0.52 0.29
0.39 0.43 0.44 0.55 0.82 1.06 1.35 1.68 2.03 2.28 1.84 1.20 1.04 0.92 0.68 0.61 0.61 0.83 1.03 0.74 0.56 0.45
0.32 0.22 0.22 0.27 0.35 0.38 0.48 0.65 0.93 1.36 2.03 2.06 1.55 1.37 1.10 0.74 0.63 0.62 0.69 1.10 0.89 0.43
0.28 0.37 0.24 0.23 0.19 0.22 0.33 0.37 0.45 0.63 0.98 1.43 1.43 1.95 2.03 1.85 0.90 0.69 0.63 0.63 1.22 1.14
0.22 0.18 0.22 0.23 0.25 0.16 0.26 0.36 0.41 0.54 0.61 0.61 0.78 1.33 1.73 2.69 2.64 1.41 1.01 1.10 0.94 1.16
0.10 0.16 0.27 0.17 0.22 0.26 0.27 0.31 0.31 0.31 0.30 0.37 0.36 0.59 0.95 1.38 2.05 2.29 2.04 1.29 1.10 1.02
0.01 0.01 0.02 0.06 0.16 0.26 0.24 0.23 0.24 0.33 0.43 0.42 0.38 0.50 0.63 1.11 1.42 1.34 1.52 2.08 1.39 1.03
0.01 0.01 0.00 0.00 0.01 0.11 0.27 0.36 0.29 0.28 0.21 0.27 0.35 0.49 0.67 0.77 1.16 1.52 1.27 1.01 1.18 1.01

GFSNIL_prec_precacc24_159.txt.gz
Total_Precipitation_Accumulation
0.00 0.02 0.06 0.13 0.11 0.08 0.21 0.67 0.94 0.67 0.59 0.68 0.63 0.86 0.82 0.72 0.88 0.94 0.83 0.82 0.71 0.65
0.01 0.03 0.07 0.14 0.28 0.17 0.25 0.33 1.08 1.51 1.34 1.22 1.24 0.81 0.80 0.72 0.47 0.61 0.70 0.65 0.89 0.83
0.05 0.04 0.08 0.11 0.54 0.81 0.49 0.64 0.58 0.86 1.36 1.65 1.59 1.68 1.31 1.07 0.64 0.50 0.55 0.54 0.50 0.57
0.32 0.40 0.41 0.38 0.65 1.10 0.75 0.57 0.71 0.53 0.50 0.90 1.14 1.68 1.68 1.18 0.88 0.70 0.52 0.48 0.51 0.45
0.35 0.50 0.64 0.87 0.90 1.45 1.54 0.86 0.62 0.61 0.37 0.34 0.53 0.81 1.62 1.51 1.10 0.94 0.72 0.52 0.43 0.41
0.65 0.71 0.68 0.74 0.76 0.94 1.38 1.04 1.17 0.95 0.79 0.49 0.36 0.40 0.63 1.37 1.52 0.92 0.69 0.55 0.39 0.23
0.40 0.64 0.84 0.93 0.88 1.14 1.09 1.44 1.72 1.95 0.99 0.65 0.65 0.61 0.57 0.64 1.00 1.23 0.74 0.67 0.53 0.32
0.29 0.32 0.32 0.43 0.71 0.88 1.14 1.52 1.89 2.12 1.65 1.03 0.95 0.90 0.70 0.64 0.66 0.88 1.06 0.75 0.56 0.45
0.31 0.19 0.20 0.23 0.31 0.33 0.42 0.56 0.81 1.23 1.94 1.90 1.44 1.27 1.05 0.77 0.71 0.71 0.79 1.17 0.91 0.43
0.27 0.37 0.23 0.21 0.18 0.21 0.28 0.33 0.40 0.53 0.88 1.32 1.35 1.81 1.85 1.73 0.92 0.75 0.73 0.72 1.27 1.15
0.22 0.18 0.21 0.20 0.20 0.15 0.21 0.33 0.36 0.46 0.49 0.55 0.72 1.25 1.72 2.69 2.65 1.45 1.06 1.16 0.99 1.19
0.10 0.16 0.27 0.17 0.21 0.24 0.24 0.28 0.29 0.25 0.25 0.35 0.35 0.58 0.95 1.38 2.08 2.32 2.10 1.36 1.16 1.09
0.01 0.01 0.02 0.06 0.16 0.26 0.23 0.23 0.24 0.31 0.33 0.32 0.34 0.46 0.63 1.13 1.46 1.39 1.63 2.23 1.49 1.12
0.01 0.01 0.00 0.00 0.01 0.11 0.27 0.36 0.29 0.28 0.19 0.21 0.30 0.42 0.59 0.74 1.21 1.62 1.39 1.22 1.43 1.17

GFSNIL_prec_precacc24_162.txt.gz
Total_Precipitation_Accumulation
0.00 0.02 0.06 0.13 0.11 0.08 0.21 0.67 0.94 0.67 0.59 0.68 0.63 0.86 0.82 0.72 0.88 0.94 0.83 0.82 0.71 0.65
0.01 0.03 0.07 0.14 0.27 0.17 0.25 0.33 1.07 1.51 1.34 1.22 1.24 0.81 0.78 0.72 0.47 0.61 0.70 0.65 0.89 0.82
0.04 0.03 0.07 0.10 0.53 0.81 0.49 0.63 0.57 0.84 1.35 1.61 1.57 1.63 1.27 1.06 0.64 0.50 0.55 0.54 0.50 0.57
0.25 0.34 0.37 0.36 0.62 1.08 0.73 0.56 0.70 0.47 0.41 0.77 0.95 1.51 1.58 1.13 0.86 0.70 0.51 0.48 0.51 0.45
0.30 0.46 0.57 0.78 0.81 1.35 1.46 0.81 0.59 0.50 0.23 0.16 0.32 0.58 1.43 1.39 1.02 0.93 0.70 0.51 0.42 0.40
0.53 0.60 0.57 0.66 0.67 0.86 1.29 0.97 1.15 0.75 0.47 0.29 0.18 0.24 0.51 1.26 1.45 0.88 0.67 0.54 0.37 0.22
0.28 0.49 0.72 0.84 0.84 1.09 1.04 1.42 1.69 1.92 0.93 0.51 0.48 0.46 0.43 0.53 0.94 1.20 0.72 0.67 0.53 0.32
0.05 0.13 0.13 0.24 0.57 0.85 1.11 1.49 1.83 2.04 1.59 0.96 0.86 0.78 0.55 0.49 0.60 0.84 1.05 0.76 0.57 0.46
0.00 0.01 0.01 0.04 0.09 0.21 0.40 0.54 0.76 1.12 1.78 1.72 1.26 1.10 0.87 0.57 0.60 0.68 0.79 1.17 0.93 0.46
0.01 0.07 0.08 0.05 0.03 0.06 0.16 0.28 0.37 0.44 0.68 1.03 1.06 1.52 1.44 1.44 0.79 0.68 0.67 0.71 1.28 1.18
0.19 0.13 0.17 0.16 0.16 0.11 0.16 0.28 0.33 0.42 0.44 0.43 0.54 1.05 1.30 1.80 2.16 1.36 1.01 1.14 0.99 1.21
0.10 0.16 0.25 0.16 0.18 0.20 0.22 0.23 0.26 0.23 0.22 0.29 0.31 0.50 0.86 1.25 1.99 2.30 2.10 1.36 1.16 1.10
0.02 0.01 0.02 0.06 0.16 0.25 0.22 0.18 0.19 0.30 0.28 0.26 0.29 0.43 0.61 1.12 1.44 1.39 1.63 2.24 1.50 1.14
0.01 0.01 0.00 0.00 0.01 0.11 0.27 0.36 0.28 0.28 0.19 0.18 0.22 0.37 0.57 0.73 1.23 1.65 1.41 1.23 1.45 1.19

GFSNIL_prec_precacc24_165.txt.gz
Total_Precipitation_Accumulation
0.00 0.01 0.01 0.03 0.04 0.04 0.14 0.62 0.94 0.67 0.59 0.68 0.63 0.86 0.82 0.72 0.88 0.94 0.83 0.82 0.71 0.66
0.01 0.02 0.04 0.08 0.17 0.10 0.19 0.27 1.07 1.49 1.33 1.22 1.24 0.80 0.78 0.72 0.47 0.61 0.68 0.62 0.86 0.80
0.04 0.03 0.07 0.09 0.30 0.59 0.36 0.53 0.53 0.83 1.35 1.60 1.56 1.63 1.27 1.06 0.64 0.50 0.53 0.51 0.46 0.52
0.07 0.09 0.19 0.25 0.52 0.64 0.54 0.44 0.66 0.46 0.40 0.75 0.93 1.45 1.52 1.10 0.85 0.70 0.51 0.47 0.50 0.44
0.18 0.20 0.36 0.48 0.52 1.08 1.23 0.69 0.56 0.49 0.23 0.15 0.29 0.52 1.37 1.28 0.92 0.83 0.67 0.49 0.40 0.40
0.44 0.40 0.43 0.54 0.47 0.71 1.15 0.83 1.08 0.71 0.45 0.27 0.15 0.21 0.50 1.22 1.39 0.81 0.64 0.51 0.34 0.21
0.24 0.42 0.61 0.71 0.73 0.96 0.92 1.31 1.58 1.86 0.89 0.46 0.44 0.43 0.41 0.49 0.91 1.17 0.68 0.61 0.48 0.25
0.03 0.08 0.10 0.20 0.48 0.75 1.01 1.36 1.67 1.92 1.51 0.87 0.78 0.74 0.53 0.43 0.44 0.77 1.00 0.69 0.51 0.40
0.00 0.00 0.01 0.03 0.05 0.09 0.21 0.42 0.69 1.06 1.75 1.70 1.22 1.06 0.86 0.54 0.42 0.44 0.62 1.06 0.86 0.41
0.00 0.00 0.00 0.00 0.00 0.00 0.01 0.04 0.19 0.37 0.63 1.01 1.05 1.50 1.40 1.36 0.68 0.50 0.47 0.54 1.14 1.04
0.05 0.03 0.01 0.00 0.01 0.02 0.02 0.06 0.05 0.15 0.31 0.36 0.48 0.95 1.24 1.61 1.71 1.06 0.73 0.66 0.62 0.86
0.05 0.09 0.08 0.07 0.10 0.10 0.10 0.10 0.07 0.06 0.10 0.18 0.24 0.42 0.69 1.03 1.44 1.41 1.46 0.96 0.79 0.92
0.02 0.01 0.01 0.03 0.07 0.13 0.11 0.10 0.10 0.14 0.16 0.18 0.18 0.25 0.44 0.87 1.18 1.18 1.33 1.99 1.41 1.12
0.01 0.01 0.00 0.00 0.00 0.06 0.16 0.23 0.16 0.15 0.16 0.16 0.20 0.30 0.48 0.63 1.06 1.56 1.29 1.13 1.42 1.19

GFSNIL_prec_precacc24_171.txt.gz
Total_Precipitation_Accumulation
0.00 0.00 0.00 0.00 0.01 0.01 0.01 0.01 0.01 0.01 0.01 0.02 0.01 0.30 0.71 0.68 0.88 0.95 0.83 0.83 0.72 0.67
0.01 0.01 0.01 0.01 0.02 0.03 0.02 0.01 0.01 0.01 0.02 0.04 0.03 0.04 0.41 0.62 0.45 0.61 0.68 0.62 0.86 0.81
0.02 0.03 0.06 0.05 0.08 0.13 0.11 0.11 0.06 0.02 0.02 0.03 0.07 0.05 0.36 0.77 0.55 0.47 0.53 0.51 0.47 0.52
0.03 0.05 0.10 0.11 0.27 0.19 0.14 0.14 0.08 0.04 0.06 0.05 0.11 0.10 0.22 0.60 0.64 0.63 0.50 0.47 0.50 0.43
0.02 0.06 0.10 0.18 0.15 0.19 0.18 0.12 0.09 0.13 0.06 0.03 0.02 0.05 0.17 0.32 0.49 0.74 0.65 0.49 0.40 0.40
0.01 0.03 0.06 0.14 0.12 0.15 0.22 0.14 0.20 0.14 0.14 0.11 0.07 0.09 0.11 0.19 0.65 0.64 0.60 0.51 0.33 0.21
0.00 0.00 0.01 0.09 0.12 0.23 0.22 0.30 0.30 0.28 0.20 0.13 0.18 0.20 0.16 0.15 0.53 0.90 0.51 0.51 0.47 0.24
0.00 0.00 0.00 0.00 0.01 0.07 0.15 0.39 0.45 0.34 0.35 0.31 0.38 0.33 0.28 0.24 0.24 0.60 0.78 0.54 0.45 0.38
0.00 0.00 0.00 0.00 0.00 0.00 0.01 0.10 0.28 0.22 0.22 0.34 0.45 0.57 0.43 0.30 0.23 0.28 0.49 0.93 0.75 0.35
0.00 0.00 0.00 0.00 0.00 0.00 0.01 0.02 0.09 0.19 0.19 0.15 0.28 0.68 0.63 0.62 0.27 0.29 0.29 0.38 1.00 0.95
0.00 0.00 0.00 0.00 0.00 0.00 0.02 0.06 0.05 0.07 0.14 0.16 0.14 0.53 0.63 0.75 0.78 0.42 0.39 0.38 0.39 0.70
0.01 0.01 0.00 0.00 0.00 0.00 0.02 0.05 0.05 0.03 0.05 0.08 0.09 0.25 0.49 0.75 0.97 1.12 1.19 0.73 0.42 0.49
0.01 0.01 0.00 0.00 0.00 0.00 0.00 0.02 0.00 0.00 0.03 0.08 0.06 0.10 0.33 0.71 0.93 0.91 1.06 1.48 0.84 0.56
0.01 0.01 0.00 0.00 0.00 0.00 0.00 0.00 0.00 0.02 0.01 0.02 0.05 0.08 0.14 0.32 0.69 1.03 0.89 0.86 1.00 0.78

GFSNIL_prec_precacc24_174.txt.gz
Total_Precipitation_Accumulation
0.00 0.00 0.00 0.00 0.00 0.00 0.00 0.00 0.00 0.01 0.00 0.01 0.01 0.01 0.02 0.03 0.09 0.64 0.74 0.78 0.71 0.67
0.00 0.00 0.00 0.00 0.00 0.01 0.01 0.00 0.01 0.01 0.00 0.01 0.01 0.02 0.03 0.04 0.02 0.14 0.49 0.56 0.82 0.80
0.00 0.00 0.00 0.01 0.04 0.10 0.04 0.05 0.04 0.01 0.01 0.01 0.02 0.02 0.05 0.07 0.04 0.03 0.23 0.42 0.41 0.50
0.00 0.00 0.00 0.02 0.08 0.12 0.12 0.12 0.04 0.02 0.05 0.03 0.03 0.04 0.09 0.08 0.07 0.06 0.07 0.27 0.40 0.39
0.00 0.00 0.00 0.01 0.01 0.07 0.14 0.10 0.09 0.12 0.06 0.02 0.02 0.02 0.04 0.04 0.05 0.08 0.09 0.16 0.25 0.34
0.00 0.00 0.00 0.00 0.00 0.02 0.08 0.10 0.17 0.12 0.13 0.11 0.05 0.08 0.10 0.09 0.05 0.03 0.04 0.09 0.16 0.17
0.00 0.00 0.00 0.00 0.00 0.01 0.06 0.14 0.16 0.23 0.18 0.10 0.15 0.19 0.14 0.08 0.04 0.03 0.01 0.01 0.07 0.08
0.00 0.00 0.00 0.00 0.00 0.00 0.01 0.05 0.09 0.10 0.16 0.19 0.24 0.25 0.22 0.15 0.08 0.06 0.04 0.03 0.03 0.06
0.00 0.00 0.00 0.00 0.00 0.00 0.00 0.02 0.07 0.10 0.12 0.24 0.28 0.36 0.29 0.22 0.14 0.10 0.12 0.09 0.06 0.08
0.00 0.00 0.00 0.00 0.00 0.00 0.01 0.02 0.04 0.08 0.12 0.12 0.13 0.37 0.49 0.37 0.14 0.11 0.11 0.10 0.11 0.36
0.00 0.00 0.00 0.00 0.00 0.00 0.01 0.05 0.04 0.05 0.07 0.09 0.09 0.18 0.46 0.63 0.63 0.23 0.14 0.15 0.13 0.48
0.01 0.01 0.00 0.00 0.00 0.00 0.00 0.02 0.04 0.02 0.04 0.05 0.05 0.16 0.36 0.66 0.80 0.68 0.34 0.28 0.22 0.29
0.01 0.01 0.00 0.00 0.00 0.00 0.00 0.00 0.00 0.00 0.02 0.06 0.05 0.06 0.27 0.66 0.87 0.78 0.78 0.62 0.42 0.31
0.00 0.01 0.00 0.00 0.00 0.00 0.00 0.00 0.00 0.01 0.01 0.01 0.04 0.07 0.10 0.25 0.67 1.03 0.88 0.80 0.77 0.51

GFSNIL_prec_precacc24_177.txt.gz
Total_Precipitation_Accumulation
0.00 0.00 0.00 0.00 0.00 0.00 0.00 0.00 0.00 0.00 0.00 0.00 0.00 0.01 0.01 0.02 0.01 0.03 0.03 0.06 0.37 0.58
0.00 0.00 0.00 0.00 0.00 0.00 0.00 0.00 0.00 0.00 0.00 0.00 0.01 0.01 0.02 0.02 0.01 0.02 0.04 0.06 0.23 0.57
0.00 0.00 0.00 0.00 0.00 0.00 0.00 0.00 0.00 0.00 0.00 0.00 0.01 0.02 0.04 0.05 0.03 0.03 0.03 0.03 0.06 0.23
0.00 0.00 0.00 0.00 0.00 0.00 0.00 0.00 0.00 0.01 0.03 0.01 0.01 0.02 0.04 0.05 0.06 0.06 0.04 0.03 0.05 0.06
0.00 0.00 0.00 0.00 0.00 0.00 0.00 0.00 0.02 0.06 0.05 0.02 0.01 0.01 0.03 0.03 0.05 0.08 0.09 0.06 0.07 0.06
0.00 0.00 0.00 0.00 0.00 0.00 0.00 0.00 0.01 0.04 0.06 0.08 0.04 0.07 0.10 0.08 0.05 0.03 0.04 0.05 0.07 0.09
0.00 0.00 0.00 0.00 0.00 0.00 0.00 0.00 0.00 0.02 0.04 0.05 0.10 0.16 0.13 0.07 0.04 0.03 0.01 0.01 0.03 0.05
0.00 0.00 0.00 0.00 0.00 0.00 0.00 0.00 0.00 0.01 0.05 0.05 0.12 0.18 0.19 0.15 0.08 0.05 0.04 0.03 0.03 0.02
0.00 0.00 0.00 0.00 0.00 0.00 0.00 0.00 0.00 0.00 0.02 0.08 0.10 0.16 0.20 0.19 0.14 0.10 0.12 0.09 0.05 0.04
0.00 0.00 0.00 0.00 0.00 0.00 0.00 0.00 0.00 0.00 0.01 0.04 0.08 0.13 0.18 0.17 0.10 0.10 0.11 0.10 0.07 0.04
0.00 0.00 0.00 0.00 0.00 0.00 0.00 0.00 0.00 0.00 0.01 0.02 0.02 0.04 0.12 0.19 0.20 0.15 0.09 0.08 0.06 0.07
0.00 0.00 0.00 0.00 0.00 0.00 0.00 0.00 0.00 0.00 0.01 0.02 0.02 0.02 0.08 0.19 0.32 0.34 0.20 0.12 0.10 0.13
0.00 0.00 0.00 0.00 0.00 0.00 0.00 0.00 0.00 0.00 0.00 0.02 0.02 0.02 0.06 0.25 0.39 0.53 0.53 0.35 0.19 0.19
0.00 0.00 0.00 0.00 0.00 0.00 0.00 0.00 0.00 0.00 0.00 0.00 0.02 0.04 0.06 0.13 0.34 0.68 0.71 0.63 0.57 0.38

GFSNIL_prec_precacc24_183.txt.gz
Total_Precipitation_Accumulation
0.00 0.00 0.00 0.00 0.00 0.00 0.00 0.00 0.00 0.00 0.00 0.00 0.00 0.00 0.00 0.00 0.00 0.01 0.01 0.01 0.02 0.03
0.00 0.00 0.00 0.00 0.00 0.00 0.00 0.00 0.00 0.00 0.00 0.00 0.00 0.00 0.00 0.00 0.00 0.00 0.01 0.01 0.01 0.01
0.00 0.00 0.00 0.00 0.00 0.00 0.00 0.00 0.00 0.00 0.00 0.00 0.00 0.00 0.00 0.00 0.00 0.00 0.01 0.01 0.01 0.01
0.00 0.00 0.00 0.00 0.00 0.00 0.00 0.00 0.00 0.00 0.00 0.00 0.00 0.00 0.00 0.00 0.00 0.00 0.00 0.00 0.01 0.01
0.01 0.01 0.01 0.01 0.01 0.00 0.00 0.00 0.00 0.00 0.00 0.00 0.00 0.00 0.00 0.00 0.00 0.00 0.00 0.00 0.00 0.01
0.03 0.01 0.01 0.01 0.00 0.00 0.00 0.00 0.00 0.00 0.00 0.00 0.01 0.00 0.00 0.00 0.00 0.00 0.01 0.01 0.00 0.01
0.04 0.02 0.01 0.00 0.00 0.00 0.00 0.00 0.00 0.00 0.00 0.00 0.01 0.01 0.00 0.00 0.00 0.01 0.00 0.00 0.01 0.01
0.01 0.00 0.00 0.00 0.00 0.00 0.00 0.00 0.00 0.00 0.00 0.00 0.01 0.01 0.00 0.01 0.01 0.01 0.00 0.01 0.02 0.01
0.00 0.00 0.00 0.00 0.00 0.00 0.00 0.00 0.00 0.00 0.00 0.00 0.01 0.01 0.00 0.01 0.01 0.00 0.01 0.01 0.03 0.03
0.00 0.00 0.00 0.00 0.00 0.00 0.00 0.00 0.00 0.00 0.00 0.00 0.01 0.00 0.00 0.01 0.01 0.01 0.01 0.01 0.02 0.03
0.03 0.02 0.01 0.00 0.00 0.00 0.00 0.00 0.00 0.00 0.00 0.00 0.01 0.00 0.01 0.01 0.01 0.01 0.01 0.01 0.01 0.03
0.08 0.06 0.03 0.00 0.00 0.00 0.00 0.00 0.00 0.00 0.00 0.01 0.00 0.00 0.01 0.02 0.02 0.01 0.01 0.00 0.01 0.02
0.08 0.03 0.01 0.00 0.00 0.00 0.00 0.00 0.00 0.00 0.00 0.01 0.01 0.00 0.01 0.03 0.04 0.03 0.02 0.01 0.01 0.03
0.05 0.01 0.00 0.00 0.00 0.00 0.00 0.00 0.00 0.00 0.00 0.00 0.01 0.01 0.01 0.02 0.07 0.13 0.07 0.03 0.03 0.04

GFSNIL_prec_precacc24_189.txt.gz
Total_Precipitation_Accumulation
0.01 0.01 0.00 0.00 0.00 0.00 0.00 0.00 0.00 0.00 0.00 0.00 0.00 0.00 0.00 0.00 0.00 0.00 0.00 0.00 0.01 0.01
0.02 0.02 0.01 0.00 0.00 0.00 0.00 0.00 0.00 0.00 0.00 0.00 0.00 0.00 0.00 0.00 0.00 0.00 0.00 0.00 0.00 0.01
0.01 0.01 0.00 0.00 0.00 0.00 0.00 0.00 0.00 0.00 0.00 0.00 0.00 0.00 0.00 0.00 0.00 0.00 0.00 0.00 0.00 0.00
0.00 0.01 0.01 0.00 0.00 0.00 0.00 0.01 0.00 0.00 0.00 0.00 0.00 0.00 0.00 0.00 0.00 0.00 0.00 0.00 0.00 0.00
0.03 0.03 0.04 0.05 0.04 0.02 0.02 0.03 0.03 0.03 0.01 0.01 0.01 0.01 0.00 0.00 0.00 0.00 0.00 0.00 0.00 0.00
0.06 0.05 0.06 0.07 0.07 0.09 0.10 0.09 0.08 0.04 0.01 0.01 0.01 0.00 0.00 0.00 0.00 0.00 0.00 0.00 0.00 0.01
0.17 0.17 0.17 0.17 0.16 0.14 0.11 0.07 0.02 0.00 0.00 0.00 0.01 0.01 0.00 0.00 0.00 0.00 0.00 0.00 0.01 0.01
0.22 0.22 0.22 0.18 0.14 0.10 0.05 0.01 0.00 0.00 0.00 0.00 0.01 0.01 0.00 0.00 0.00 0.00 0.00 0.00 0.00 0.00
0.18 0.17 0.13 0.09 0.06 0.03 0.01 0.00 0.00 0.00 0.00 0.00 0.01 0.01 0.00 0.01 0.00 0.00 0.00 0.01 0.00 0.00
0.16 0.13 0.10 0.07 0.04 0.02 0.01 0.00 0.00 0.00 0.00 0.00 0.01 0.00 0.00 0.01 0.00 0.00 0.00 0.00 0.00 0.00
0.07 0.06 0.05 0.03 0.02 0.01 0.00 0.00 0.00 0.00 0.00 0.00 0.00 0.00 0.01 0.00 0.00 0.00 0.00 0.00 0.00 0.01
0.19 0.12 0.09 0.06 0.04 0.02 0.01 0.00 0.00 0.00 0.00 0.00 0.00 0.00 0.00 0.01 0.01 0.01 0.00 0.00 0.00 0.01
0.20 0.16 0.15 0.11 0.05 0.01 0.00 0.00 0.00 0.00 0.00 0.00 0.00 0.00 0.00 0.01 0.01 0.01 0.01 0.00 0.00 0.00
0.31 0.23 0.17 0.11 0.03 0.00 0.00 0.00 0.00 0.00 0.00 0.00 0.00 0.00 0.01 0.01 0.01 0.04 0.02 0.01 0.01 0.01